SCP
0 0 -0 0 0 0 0 0 0 0 0 0 0 0 0 0 0 0 0 0 0 0 0 0 0 0 0 0 0 0 0 0 0 0 0 0 0 0 0 0 0 -0 -0
0 0 0 0 0 0 0 0 0 0 0 0 0 0 0 0 0 0 0 0 0 0 0 0 0 0 0 0 0 0 0 0 0 0 0 0 0 0 0 0 0 0 -0
0 0 0 0 0 0 0 0 0 0 0 0 0 0 0 0 0 0 0 0 0 0 0 0 0 0 0 0 0 0 0 0 0 0 0 0 0 0 0 0 0 0 0
0 0 0 0 0 0 0 0 0 0 0 0 0 0 0 0 0 0 0 0 0 0 0 0 0 0 0 0 0 0 0 0 0 0 0 0 0 0 0 0 0 0 0
0 0 0 0 0 0 0 0 0 0 0 0 0 0 0 0 0 0 0 0 0 0 0 0 0 0 0 0 0 0 0 0 0 0 0 0 0 0 0 0 0 0 0
0 0 0 0 0 0 0 0 0 0 0 0 0 0 0 0 0 0 0 0 0 0 0 0 0 0 0 0 0 0 0 0 0 0 0 0 0 0 0 0 0 0 0
0 0 0 0 0 0 0 0 0 0 0 0 0 0 0 0 0 0 0 0 0 0 0 0 0 0 0 0 0 0 0 0 0 0 0 0 0 0 0 0 0 0 0
0 0 0 0 0 0 0 0 0 0 0 0 0 0 0 0 0 0 0 0 0 0 0 0 0 0 0 0 0 0 0 0 0 0 0 0 0 1 0 0 0 0 0
0 0 0 0 0 0 0 0 0 0 0 0 0 0 0 -0 -0 0 -0 0 0 0 0 0 0 0 0 0 0 0 0 0 0 0 0 0 0 0 0 0 0 0 0
0 0 0 0 0 0 0 0 0 0 0 0 0 -0 -0 -0 -0 -0 -0 0 0 0 0 0 0 0 0 0 0 0 0 0 0 0 0 0 0 0 0 0 0 0 0
0 0 0 0 0 0 0 0 0 0 0 0 0 0 0 0 0 0 0 0 0 0 0 0 0 0 0 0 0 0 0 0 0 0 0 0 0 0 0 0 0 0 0
0 0 0 0 0 0 0 0 0 0 0 0 0 0 0 0 0 0 0 0 0 0 0 0 0 0 0 0 0 0 0 0 0 0 0 0 0 0 0 0 0 0 0
0 0 0 0 0 0 0 0 0 0 0 0 0 0 0 0 0 0 0 0 0 0 0 0 0 0 0 0 0 0 0 0 0 0 0 0 0 0 0 0 0 0 0
0 0 0 0 0 0 0 0 0 0 0 0 0 0 0 0 0 0 0 0 0 0 0 0 0 0 0 0 0 0 0 0 0 0 0 0 0 0 0 0 0 0 0
0 0 0 0 0 0 0 0 0 0 0 0 0 0 0 0 0 0 0 0 0 0 0 0 0 0 0 0 0 0 0 0 0 0 0 0 0 0 0 0 0 0 0
0 0 0 0 0 0 0 0 0 0 0 0 0 0 0 0 0 0 0 0 0 0 0 0 0 0 0 0 0 0 0 0 0 0 0 0 0 0 0 0 0 0 0
0 0 0 0 0 0 0 0 0 0 0 0 0 0 0 0 0 0 0 0 0 0 0 0 0 0 0 0 0 0 0 0 0 0 0 0 0 0 0 0 0 0 0
0 0 0 0 0 0 0 0 0 0 0 0 0 0 0 0 0 0 0 0 0 0 0 0 0 0 0 0 0 0 0 0 0 0 0 0 0 0 0 0 0 0 0
0 0 0 0 0 0 0 0 0 0 0 0 0 0 0 0 0 0 0 0 0 0 0 0 0 0 0 0 0 0 0 0 0 0 0 0 0 0 0 0 0 0 0
0 0 0 0 0 0 0 0 0 0 0 0 0 0 0 0 0 0 0 0 0 0 0 0 0 0 0 0 0 0 0 0 0 0 0 0 0 0 0 0 0 0 0
0 0 0 0 0 0 0 0 0 0 0 0 0 0 0 0 0 0 0 0 0 0 0 0 0 0 0 0 0 0 0 0 0 0 0 0 0 0 0 0 0 0 0
0 0 0 0 0 0 0 0 0 0 0 0 0 0 0 0 0 0 0 0 0 0 0 0 0 0 0 0 0 0 0 0 0 0 0 0 0 0 0 0 0 0 0
0 0 0 0 0 0 0 0 0 0 0 0 0 0 0 0 0 0 0 0 0 0 0 0 0 0 0 0 0 0 0 0 0 0 0 0 0 0 0 0 0 0 0
0 0 0 0 0 0 0 0 0 0 0 0 0 0 0 0 0 0 0 0 0 0 0 0 0 0 0 0 0 0 0 0 0 0 0 0 0 0 0 0 0 0 0
0 0 0 0 0 0 0 0 0 0 0 0 0 0 0 0 0 0 0 0 0 0 0 0 0 0 0 0 0 0 0 0 0 0 0 0 0 0 0 0 0 0 0
0 0 0 0 0 0 0 0 0 0 0 0 0 0 0 0 0 0 0 0 0 0 0 0 0 0 0 0 0 0 0 0 0 0 0 0 0 0 0 0 0 0 0
Wind_Speed_500mb
15 13 9 10 8 3 3 4 4 4 8 12 16 17 14 10 6 5 4 5 8 8 10 8 3 5 16 22 24 23 21 20 19 18 18 17 15 15 15 15 18 24 22
14 12 8 14 14 5 6 4 1 5 10 13 13 11 8 7 8 9 8 9 10 9 9 5 7 5 5 14 24 27 26 24 23 23 22 18 15 15 15 17 19 19 20
16 8 9 16 16 11 8 5 3 5 8 10 10 8 7 8 9 10 10 9 10 9 8 6 6 6 4 2 10 22 28 29 27 27 24 21 21 19 18 19 19 20 17
12 8 11 17 16 15 9 5 5 7 10 11 10 7 8 9 9 10 10 10 10 9 7 5 5 7 7 5 5 11 20 27 31 31 24 23 21 20 19 20 18 16 12
14 10 14 18 18 16 13 8 6 7 8 6 5 7 9 11 13 14 14 15 14 13 12 11 7 4 7 7 7 6 11 19 26 28 28 24 21 18 20 20 17 14 12
16 11 12 16 17 16 16 13 10 9 7 8 11 11 12 15 15 15 17 17 18 17 18 16 14 11 8 7 8 6 7 10 15 15 25 25 21 20 21 20 15 14 11
15 10 9 14 16 18 19 17 15 15 15 16 17 14 13 12 13 13 13 13 13 13 16 15 13 11 10 11 10 9 6 5 6 8 16 20 20 20 23 19 20 16 10
13 8 7 11 15 17 18 19 19 18 19 18 15 11 9 6 7 7 8 8 11 12 12 12 10 8 8 13 13 8 1 5 8 8 8 14 20 18 16 16 18 15 11
15 10 5 8 10 13 15 17 20 19 19 16 13 10 6 4 3 6 6 8 7 12 9 9 12 14 10 9 12 10 9 10 8 12 16 18 20 17 18 19 17 14 11
19 15 9 9 9 9 10 13 15 17 17 16 15 10 6 5 8 8 8 9 8 11 11 11 14 11 9 4 3 7 8 10 8 14 15 17 19 19 18 14 11 5 7
27 22 15 12 13 11 9 8 9 13 14 14 15 14 11 8 10 7 6 9 11 12 12 12 13 12 10 5 4 3 7 8 12 18 14 18 17 16 13 8 3 7 13
28 26 20 18 14 13 8 6 3 8 11 12 15 16 13 10 9 8 8 9 14 12 10 11 12 11 11 7 7 6 5 8 15 21 17 20 17 12 8 4 8 12 13
26 29 25 17 18 19 14 9 5 2 7 10 13 15 16 10 8 8 9 16 13 7 8 11 12 8 6 6 5 8 10 12 19 20 18 18 15 9 5 5 8 8 10
35 29 28 25 22 19 19 15 10 5 2 4 8 13 18 10 6 7 10 14 10 8 10 15 15 8 5 5 8 4 15 17 17 18 15 15 9 5 5 2 3 9 15
41 39 34 31 27 21 21 21 14 10 3 3 4 7 12 9 5 7 9 13 13 10 15 20 7 3 4 2 6 6 20 20 21 16 13 12 8 6 5 3 7 12 12
49 47 43 36 30 25 23 24 17 15 10 7 5 3 6 10 8 9 11 13 13 14 19 20 6 5 2 5 3 7 18 18 16 15 11 9 9 9 5 7 14 14 13
62 57 51 43 35 29 25 24 22 19 15 11 10 6 3 4 11 12 13 16 15 17 19 18 5 4 5 4 6 5 8 15 16 14 9 8 5 4 10 12 16 13 12
49 56 56 48 41 31 26 25 23 22 18 15 14 11 8 4 7 13 14 15 14 18 16 14 3 2 2 2 10 8 11 14 14 10 9 9 9 10 12 12 11 11 13
24 26 51 50 43 34 28 22 22 21 22 20 18 14 11 9 8 9 11 10 9 14 12 12 3 2 2 5 7 14 16 15 13 12 12 10 8 10 14 16 19 20 22
20 12 35 45 44 37 30 21 22 20 24 22 20 18 17 13 15 13 12 10 9 7 6 6 9 2 3 3 2 17 19 17 17 15 8 6 11 16 23 27 28 30 32
26 8 20 40 42 39 32 22 22 24 25 23 21 21 21 21 17 14 13 10 7 5 4 1 5 4 6 3 3 6 19 20 21 22 18 16 19 26 26 28 32 38 40
30 19 10 32 38 34 29 22 22 22 26 25 23 23 23 22 19 14 12 10 7 6 5 6 2 2 3 4 1 6 6 11 23 24 26 29 27 23 22 33 39 41 42
26 20 10 16 31 33 30 26 27 27 28 28 25 22 21 20 22 18 13 11 9 8 9 8 5 4 1 3 3 2 6 8 10 20 24 21 24 24 29 26 26 28 31
20 13 6 10 26 34 36 32 32 31 31 29 26 25 22 19 19 20 18 15 12 12 12 11 10 9 6 6 9 10 13 14 13 18 17 20 28 23 20 16 21 28 34
18 14 8 10 24 34 35 36 37 39 34 32 28 24 22 21 22 22 22 21 18 16 16 16 13 12 11 11 13 16 18 21 24 26 32 21 24 18 20 23 29 33 39
19 14 7 5 17 34 33 38 42 43 38 36 31 29 25 24 23 23 24 27 26 21 18 16 15 12 14 16 20 23 24 23 25 25 31 32 29 28 25 28 24 24 31
Wind_Direction_500mb
153 136 73 25 26 64 181 220 257 293 290 308 314 318 317 318 333 350 7 359 50 34 38 27 4 240 221 222 223 222 216 205 199 201 187 181 173 169 162 150 140 157 162
140 111 47 29 21 43 96 101 285 281 289 299 302 310 326 354 12 23 38 52 61 48 26 16 8 339 261 226 227 222 217 217 211 211 211 204 199 182 171 166 156 175 161
143 99 58 31 44 63 54 44 355 313 309 310 320 339 6 22 29 40 48 41 32 30 24 13 341 325 311 244 218 232 228 220 219 221 218 212 206 197 186 182 180 185 191
146 110 65 44 57 66 65 46 8 343 331 327 334 359 31 41 52 48 38 25 29 25 24 23 348 327 314 296 222 215 227 229 225 225 228 225 213 205 196 188 182 182 185
161 123 66 57 69 65 47 39 14 352 340 349 31 63 67 73 64 57 49 48 42 38 33 27 32 10 342 332 309 259 229 226 227 227 226 226 220 210 196 185 178 179 185
164 120 78 77 78 66 51 55 35 23 40 74 90 96 98 92 78 65 55 49 47 46 41 40 43 42 36 0 329 293 250 235 224 231 229 226 221 213 200 191 198 200 205
164 140 92 88 85 69 64 54 53 59 65 77 75 82 96 94 78 69 63 52 37 34 34 29 30 28 24 9 343 317 283 228 182 221 220 213 207 209 212 216 219 224 226
186 162 111 93 85 74 71 66 66 70 73 75 73 73 74 86 67 48 46 45 26 21 23 16 353 345 354 8 10 2 51 140 121 147 164 164 183 190 201 199 195 198 221
203 206 159 129 112 94 88 72 62 63 69 74 68 73 83 74 8 326 344 2 2 12 15 356 327 323 315 346 13 36 100 124 134 140 135 139 160 173 181 182 186 206 225
216 219 208 170 146 125 106 79 65 56 60 68 61 69 71 27 357 322 321 340 334 349 359 351 339 325 311 272 33 58 98 131 156 150 141 151 159 164 165 170 169 191 277
219 220 216 199 187 170 142 105 67 49 53 65 58 51 50 17 357 357 332 326 331 346 355 353 344 347 341 253 231 130 114 154 173 167 146 161 154 150 149 150 171 300 310
226 226 222 217 208 197 183 158 116 45 44 46 44 36 27 13 8 12 356 343 335 340 352 344 338 342 345 331 241 212 156 158 178 163 170 162 159 167 179 234 307 325 348
235 231 233 226 219 218 210 207 200 69 36 27 33 36 21 15 9 12 22 357 351 9 339 335 321 311 348 349 326 226 190 152 148 151 168 168 175 187 218 280 318 341 353
245 242 242 236 230 228 220 219 226 225 49 17 25 33 25 29 27 4 352 359 13 347 333 329 318 291 308 345 347 169 180 164 160 161 180 177 183 211 223 263 332 348 335
256 249 246 242 235 231 231 226 232 235 248 271 354 23 39 68 52 21 7 8 1 354 344 344 337 240 240 282 357 122 168 169 178 172 172 198 227 242 251 294 308 321 324
266 256 246 244 237 229 236 231 237 236 238 245 270 329 16 43 36 18 22 12 7 3 355 359 42 113 177 194 149 103 172 169 177 189 190 208 255 261 244 263 288 294 308
273 259 248 241 233 225 231 231 235 241 233 231 246 249 232 12 11 5 4 4 353 347 350 356 35 73 58 202 199 178 164 183 180 181 185 196 239 240 233 262 286 285 287
278 253 246 236 229 222 227 230 233 240 234 232 233 246 232 267 335 346 345 346 328 338 347 359 28 39 323 266 219 219 193 183 185 192 212 227 244 252 264 260 272 273 276
349 253 239 233 224 219 221 231 229 245 232 235 234 238 234 252 276 305 311 323 321 334 347 359 330 329 278 285 227 218 205 197 205 222 223 247 261 273 244 258 270 275 279
3 270 237 228 219 216 219 230 235 252 234 235 241 241 238 255 270 285 301 307 318 321 358 0 358 285 329 333 190 204 202 213 222 207 232 269 289 277 261 263 271 275 278
19 13 230 218 219 219 221 229 247 256 236 239 240 240 242 250 266 274 298 285 297 316 268 325 12 24 16 80 95 182 214 222 224 226 241 281 291 292 270 271 276 280 284
25 26 249 225 227 232 230 240 261 259 238 244 239 241 249 257 263 264 279 270 271 281 261 231 233 73 88 62 260 221 237 248 237 244 257 274 285 273 284 282 280 282 282
22 22 351 259 244 243 242 249 268 261 244 247 245 246 249 253 256 246 246 257 268 281 273 238 236 225 252 324 332 243 276 258 264 253 262 273 260 289 289 289 283 281 283
16 25 16 259 247 242 247 256 268 274 253 252 255 254 251 252 245 232 232 246 265 274 261 253 240 242 250 263 292 281 276 271 286 290 289 287 290 291 288 289 295 293 293
348 345 299 255 253 255 259 266 273 284 266 260 258 254 244 246 246 237 242 246 260 274 261 248 245 248 261 269 284 287 290 287 283 275 289 286 295 291 289 288 292 290 289
314 307 335 294 289 261 264 278 279 285 278 268 262 258 255 247 249 246 254 255 254 256 264 254 240 247 268 285 289 288 293 287 289 278 279 285 286 283 291 291 292 290 292
Wind_Speed_850mb
15 13 9 10 8 3 3 4 4 4 8 12 16 17 14 10 6 5 4 5 8 8 10 8 3 5 16 22 24 23 21 20 19 18 18 17 15 15 15 15 18 24 22
14 12 8 14 14 5 6 4 1 5 10 13 13 11 8 7 8 9 8 9 10 9 9 5 7 5 5 14 24 27 26 24 23 23 22 18 15 15 15 17 19 19 20
16 8 9 16 16 11 8 5 3 5 8 10 10 8 7 8 9 10 10 9 10 9 8 6 6 6 4 2 10 22 28 29 27 27 24 21 21 19 18 19 19 20 17
12 8 11 17 16 15 9 5 5 7 10 11 10 7 8 9 9 10 10 10 10 9 7 5 5 7 7 5 5 11 20 27 31 31 24 23 21 20 19 20 18 16 12
14 10 14 18 18 16 13 8 6 7 8 6 5 7 9 11 13 14 14 15 14 13 12 11 7 4 7 7 7 6 11 19 26 28 28 24 21 18 20 20 17 14 12
16 11 12 16 17 16 16 13 10 9 7 8 11 11 12 15 15 15 17 17 18 17 18 16 14 11 8 7 8 6 7 10 15 15 25 25 21 20 21 20 15 14 11
15 10 9 14 16 18 19 17 15 15 15 16 17 14 13 12 13 13 13 13 13 13 16 15 13 11 10 11 10 9 6 5 6 8 16 20 20 20 23 19 20 16 10
13 8 7 11 15 17 18 19 19 18 19 18 15 11 9 6 7 7 8 8 11 12 12 12 10 8 8 13 13 8 1 5 8 8 8 14 20 18 16 16 18 15 11
15 10 5 8 10 13 15 17 20 19 19 16 13 10 6 4 3 6 6 8 7 12 9 9 12 14 10 9 12 10 9 10 8 12 16 18 20 17 18 19 17 14 11
19 15 9 9 9 9 10 13 15 17 17 16 15 10 6 5 8 8 8 9 8 11 11 11 14 11 9 4 3 7 8 10 8 14 15 17 19 19 18 14 11 5 7
27 22 15 12 13 11 9 8 9 13 14 14 15 14 11 8 10 7 6 9 11 12 12 12 13 12 10 5 4 3 7 8 12 18 14 18 17 16 13 8 3 7 13
28 26 20 18 14 13 8 6 3 8 11 12 15 16 13 10 9 8 8 9 14 12 10 11 12 11 11 7 7 6 5 8 15 21 17 20 17 12 8 4 8 12 13
26 29 25 17 18 19 14 9 5 2 7 10 13 15 16 10 8 8 9 16 13 7 8 11 12 8 6 6 5 8 10 12 19 20 18 18 15 9 5 5 8 8 10
35 29 28 25 22 19 19 15 10 5 2 4 8 13 18 10 6 7 10 14 10 8 10 15 15 8 5 5 8 4 15 17 17 18 15 15 9 5 5 2 3 9 15
41 39 34 31 27 21 21 21 14 10 3 3 4 7 12 9 5 7 9 13 13 10 15 20 7 3 4 2 6 6 20 20 21 16 13 12 8 6 5 3 7 12 12
49 47 43 36 30 25 23 24 17 15 10 7 5 3 6 10 8 9 11 13 13 14 19 20 6 5 2 5 3 7 18 18 16 15 11 9 9 9 5 7 14 14 13
62 57 51 43 35 29 25 24 22 19 15 11 10 6 3 4 11 12 13 16 15 17 19 18 5 4 5 4 6 5 8 15 16 14 9 8 5 4 10 12 16 13 12
49 56 56 48 41 31 26 25 23 22 18 15 14 11 8 4 7 13 14 15 14 18 16 14 3 2 2 2 10 8 11 14 14 10 9 9 9 10 12 12 11 11 13
24 26 51 50 43 34 28 22 22 21 22 20 18 14 11 9 8 9 11 10 9 14 12 12 3 2 2 5 7 14 16 15 13 12 12 10 8 10 14 16 19 20 22
20 12 35 45 44 37 30 21 22 20 24 22 20 18 17 13 15 13 12 10 9 7 6 6 9 2 3 3 2 17 19 17 17 15 8 6 11 16 23 27 28 30 32
26 8 20 40 42 39 32 22 22 24 25 23 21 21 21 21 17 14 13 10 7 5 4 1 5 4 6 3 3 6 19 20 21 22 18 16 19 26 26 28 32 38 40
30 19 10 32 38 34 29 22 22 22 26 25 23 23 23 22 19 14 12 10 7 6 5 6 2 2 3 4 1 6 6 11 23 24 26 29 27 23 22 33 39 41 42
26 20 10 16 31 33 30 26 27 27 28 28 25 22 21 20 22 18 13 11 9 8 9 8 5 4 1 3 3 2 6 8 10 20 24 21 24 24 29 26 26 28 31
20 13 6 10 26 34 36 32 32 31 31 29 26 25 22 19 19 20 18 15 12 12 12 11 10 9 6 6 9 10 13 14 13 18 17 20 28 23 20 16 21 28 34
18 14 8 10 24 34 35 36 37 39 34 32 28 24 22 21 22 22 22 21 18 16 16 16 13 12 11 11 13 16 18 21 24 26 32 21 24 18 20 23 29 33 39
19 14 7 5 17 34 33 38 42 43 38 36 31 29 25 24 23 23 24 27 26 21 18 16 15 12 14 16 20 23 24 23 25 25 31 32 29 28 25 28 24 24 31
Wind_Direction_850mb
153 136 73 25 26 64 181 220 257 293 290 308 314 318 317 318 333 350 7 359 50 34 38 27 4 240 221 222 223 222 216 205 199 201 187 181 173 169 162 150 140 157 162
140 111 47 29 21 43 96 101 285 281 289 299 302 310 326 354 12 23 38 52 61 48 26 16 8 339 261 226 227 222 217 217 211 211 211 204 199 182 171 166 156 175 161
143 99 58 31 44 63 54 44 355 313 309 310 320 339 6 22 29 40 48 41 32 30 24 13 341 325 311 244 218 232 228 220 219 221 218 212 206 197 186 182 180 185 191
146 110 65 44 57 66 65 46 8 343 331 327 334 359 31 41 52 48 38 25 29 25 24 23 348 327 314 296 222 215 227 229 225 225 228 225 213 205 196 188 182 182 185
161 123 66 57 69 65 47 39 14 352 340 349 31 63 67 73 64 57 49 48 42 38 33 27 32 10 342 332 309 259 229 226 227 227 226 226 220 210 196 185 178 179 185
164 120 78 77 78 66 51 55 35 23 40 74 90 96 98 92 78 65 55 49 47 46 41 40 43 42 36 0 329 293 250 235 224 231 229 226 221 213 200 191 198 200 205
164 140 92 88 85 69 64 54 53 59 65 77 75 82 96 94 78 69 63 52 37 34 34 29 30 28 24 9 343 317 283 228 182 221 220 213 207 209 212 216 219 224 226
186 162 111 93 85 74 71 66 66 70 73 75 73 73 74 86 67 48 46 45 26 21 23 16 353 345 354 8 10 2 51 140 121 147 164 164 183 190 201 199 195 198 221
203 206 159 129 112 94 88 72 62 63 69 74 68 73 83 74 8 326 344 2 2 12 15 356 327 323 315 346 13 36 100 124 134 140 135 139 160 173 181 182 186 206 225
216 219 208 170 146 125 106 79 65 56 60 68 61 69 71 27 357 322 321 340 334 349 359 351 339 325 311 272 33 58 98 131 156 150 141 151 159 164 165 170 169 191 277
219 220 216 199 187 170 142 105 67 49 53 65 58 51 50 17 357 357 332 326 331 346 355 353 344 347 341 253 231 130 114 154 173 167 146 161 154 150 149 150 171 300 310
226 226 222 217 208 197 183 158 116 45 44 46 44 36 27 13 8 12 356 343 335 340 352 344 338 342 345 331 241 212 156 158 178 163 170 162 159 167 179 234 307 325 348
235 231 233 226 219 218 210 207 200 69 36 27 33 36 21 15 9 12 22 357 351 9 339 335 321 311 348 349 326 226 190 152 148 151 168 168 175 187 218 280 318 341 353
245 242 242 236 230 228 220 219 226 225 49 17 25 33 25 29 27 4 352 359 13 347 333 329 318 291 308 345 347 169 180 164 160 161 180 177 183 211 223 263 332 348 335
256 249 246 242 235 231 231 226 232 235 248 271 354 23 39 68 52 21 7 8 1 354 344 344 337 240 240 282 357 122 168 169 178 172 172 198 227 242 251 294 308 321 324
266 256 246 244 237 229 236 231 237 236 238 245 270 329 16 43 36 18 22 12 7 3 355 359 42 113 177 194 149 103 172 169 177 189 190 208 255 261 244 263 288 294 308
273 259 248 241 233 225 231 231 235 241 233 231 246 249 232 12 11 5 4 4 353 347 350 356 35 73 58 202 199 178 164 183 180 181 185 196 239 240 233 262 286 285 287
278 253 246 236 229 222 227 230 233 240 234 232 233 246 232 267 335 346 345 346 328 338 347 359 28 39 323 266 219 219 193 183 185 192 212 227 244 252 264 260 272 273 276
349 253 239 233 224 219 221 231 229 245 232 235 234 238 234 252 276 305 311 323 321 334 347 359 330 329 278 285 227 218 205 197 205 222 223 247 261 273 244 258 270 275 279
3 270 237 228 219 216 219 230 235 252 234 235 241 241 238 255 270 285 301 307 318 321 358 0 358 285 329 333 190 204 202 213 222 207 232 269 289 277 261 263 271 275 278
19 13 230 218 219 219 221 229 247 256 236 239 240 240 242 250 266 274 298 285 297 316 268 325 12 24 16 80 95 182 214 222 224 226 241 281 291 292 270 271 276 280 284
25 26 249 225 227 232 230 240 261 259 238 244 239 241 249 257 263 264 279 270 271 281 261 231 233 73 88 62 260 221 237 248 237 244 257 274 285 273 284 282 280 282 282
22 22 351 259 244 243 242 249 268 261 244 247 245 246 249 253 256 246 246 257 268 281 273 238 236 225 252 324 332 243 276 258 264 253 262 273 260 289 289 289 283 281 283
16 25 16 259 247 242 247 256 268 274 253 252 255 254 251 252 245 232 232 246 265 274 261 253 240 242 250 263 292 281 276 271 286 290 289 287 290 291 288 289 295 293 293
348 345 299 255 253 255 259 266 273 284 266 260 258 254 244 246 246 237 242 246 260 274 261 248 245 248 261 269 284 287 290 287 283 275 289 286 295 291 289 288 292 290 289
314 307 335 294 289 261 264 278 279 285 278 268 262 258 255 247 249 246 254 255 254 256 264 254 240 247 268 285 289 288 293 287 289 278 279 285 286 283 291 291 292 290 292